Flag for Aruba Weather past 2 weeks in Oranjestad, Aruba

Now
81 °F

Passing clouds.


Feels Like: 86 °F
Forecast: 81 / 90 °F
Wind: 15 mph from East

Location: Queen Beatrix Airport - Aruba

Current Time: Jul 30, 2014 at 7:59:38 AM

Latest Report: Jul 30, 2014 at 7:00 AM


Visibility: N/A

Pressure: 29.92 "Hg

Humidity: 84%

Dew point: 75 °F

Location of OranjestadLocation

Historic Weather in Oranjestad — Graph

°F

Oranjestad temperature yesterday

Maximum temperature yesterday: 90 °F (at 12:00 PM)
Minimum temperature yesterday: 79 °F (at 6:00 AM)
Average temperature yesterday: 84 °F

Past Weeks' High & Low Weather Summary

 TemperatureHumidityPressure
High91 °F (Jul 16, 12:00 PM)94% (Jul 26, 11:00 PM)30.01 "Hg (Jul 26, 11:00 PM)
Low77 °F (Jul 26, 11:00 PM)63% (Jul 16, 12:00 PM)29.80 "Hg (Jul 24, 4:00 PM)
Average84 °F78%29.92 "Hg
* Reported Jul 15 7:00 AM — Jul 30 7:00 AM, Oranjestad, Weather by CustomWeather, © 2014

Note: Actual official high and low records may vary slightly from our data, if they occured in-between our weather recording intervals... More about our weather records

Advertising

Oranjestad weather history for previous 24 hours

 ConditionsComfort  
Time TempWeatherWind HumidityBarometerVisibility
7:00 AM
Jul 30
81 °FPassing clouds.15 mph84%29.92 "HgN/A
6:00 AM81 °FPassing clouds.17 mph84%29.92 "HgN/A
5:00 AM81 °FPassing clouds.16 mph84%29.92 "HgN/A
4:00 AM81 °FPassing clouds.17 mph84%29.92 "HgN/A
1:00 AM82 °FPassing clouds.17 mph84%29.92 "HgN/A
12:00 AM82 °FPassing clouds.15 mph84%29.95 "HgN/A
11:00 PM
Jul 29
82 °FPassing clouds.17 mph84%29.95 "HgN/A
10:00 PMN/APassing clouds.18 mphN/A29.95 "HgN/A
9:00 PM82 °FPassing clouds.17 mph79%29.92 "HgN/A
8:00 PM82 °FPassing clouds.21 mph79%29.89 "HgN/A
7:00 PM82 °FPassing clouds.20 mph84%29.86 "HgN/A
6:00 PM86 °FPassing clouds.20 mph75%29.83 "HgN/A
5:00 PM86 °FPassing clouds.24 mph75%29.83 "HgN/A
4:00 PM88 °FPassing clouds.24 mph70%29.83 "HgN/A
3:00 PM90 °FPassing clouds.23 mph67%29.86 "HgN/A
2:00 PM88 °FScattered clouds.22 mph70%29.89 "HgN/A
1:00 PM86 °FScattered clouds.21 mph75%29.92 "HgN/A
12:00 PM90 °FScattered clouds.20 mph67%29.92 "HgN/A
11:00 AM88 °FScattered clouds.21 mph70%29.95 "HgN/A
10:00 AM88 °FScattered clouds.20 mph70%29.95 "HgN/A
9:00 AM82 °FPassing clouds.17 mph79%29.92 "HgN/A
8:00 AM82 °FPassing clouds.17 mph79%29.92 "HgN/A
7:00 AM81 °FPassing clouds.16 mph84%29.92 "HgN/A
Weather by CustomWeather, © 2014

See weather overviewHow to use our weather pages